FLOCK 3P-84 (42021 NORAD) Tracking and Keplerian Element Data

This shows tracking and keplerian element data for the satellite.

Feedback or suggestion? Click here.




ElementValue
Catalog42021
NameFLOCK 3P-84
Epoch Orbit5536
Epoch Day46.15725873
Epoch Year2018
RAAN111.7925
Inclination97.4678
Eccentricity0.0010075
Argument of Perigee69.5091
Mean Anonmoly290.7227
Mean Motion15.23924779
Decay Rate1.436E-05
L11 42021U 17008CB 18046.15725873 .00001436 00000-0 62336-4 0 9990
L22 42021 97.4678 111.7925 0010075 69.5091 290.7227 15.23924779 55368

Live tracking and technical data element details for FLOCK 3P-84 (NORAD 42021). FLOCK 3P-84 can be tracked NOW for your location showing map with azimuth and elevation plus other details from your city location.

Track the satellite on the map from your city or location and see movement details for azimuth, elevation, latitude, longitude, range, height, and movement on the map or in text.







IsCatalogInMostPopularTable: catalog: 42021, numindb: 140
Update: records affected: 1



GetName: 42021 FLOCK 3P-84

Hit Count: updated at: Fri, 16 Nov 2018 10:19:26 GMT